DW5562 Weather Reports


Display with metric or nautical units.
time (UTC)temp
F
wind
direction
speed
MPH
gust
MPH
rain 1hr
in
rain 24hr
in
rain mn
in
humidity
%
barometer
mb
20191016042952 81 222 6.0 14.0 0.00 0.00 0.00 81 1015.0
20191016042452 81 226 6.0 13.0 0.00 0.00 0.00 80 1015.0
20191016041952 81 244 5.0 13.0 0.00 0.00 0.00 82 1015.1
20191016041452 81 245 6.0 14.0 0.00 0.00 0.00 82 1015.2
20191016040952 80 250 7.0 15.0 0.00 0.00 0.00 83 1015.3
20191016040453 80 249 6.0 15.0 0.00 0.00 0.00 83 1015.3
20191016035952 81 255 5.0 13.0 0.00 0.00 0.00 83 1015.4
20191016035454 81 262 6.0 13.0 0.00 0.00 0.00 83 1015.4
20191016034953 81 253 6.0 13.0 0.00 0.00 0.00 83 1015.4
20191016034453 81 257 5.0 13.0 0.00 0.00 0.00 83 1015.4
20191016033954 81 263 6.0 18.0 0.00 0.00 0.00 83 1015.5
20191016033452 81 267 5.0 18.0 0.00 0.00 0.00 83 1015.6
20191016032952 81 254 5.0 13.0 0.00 0.00 0.00 84 1015.6
20191016032453 80 261 8.0 16.0 0.00 0.00 0.00 85 1015.8
20191016031953 80 266 7.0 16.0 0.00 0.00 0.00 83 1015.9
20191016031453 81 255 6.0 13.0 0.00 0.00 0.00 83 1015.9
20191016030953 81 256 6.0 13.0 0.00 0.00 0.00 84 1016.0
20191016030453 81 259 6.0 13.0 0.00 0.00 0.00 84 1016.1
20191016025955 80 254 8.0 14.0 0.00 0.00 0.00 84 1016.2
20191016025453 81 257 6.0 14.0 0.00 0.00 0.00 83 1016.2
20191016024953 81 269 5.0 13.0 0.00 0.00 0.00 83 1016.3
20191016024453 81 266 6.0 13.0 0.00 0.00 0.00 83 1016.3
20191016023953 81 257 6.0 11.0 0.00 0.00 0.00 83 1016.4
20191016023454 81 257 5.0 11.0 0.00 0.00 0.00 83 1016.4
20191016022953 80 254 6.0 12.0 0.00 0.00 0.00 84 1016.5
20191016022453 80 231 8.0 14.0 0.00 0.00 0.00 84 1016.4
20191016021953 80 220 7.0 14.0 0.00 0.00 0.00 83 1016.6
20191016021453 81 224 5.0 13.0 0.00 0.00 0.00 82 1016.6
20191016020954 81 224 5.0 13.0 0.00 0.00 0.00 83 1016.6
20191016020454 80 219 6.0 12.0 0.00 0.00 0.00 83 1016.6
20191016015953 80 225 6.0 13.0 0.00 0.00 0.00 84 1016.6
20191016015453 80 224 7.0 13.0 0.00 0.00 0.00 84 1016.7
20191016014954 80 220 7.0 13.0 0.00 0.00 0.00 84 1016.7
20191016014453 80 231 6.0 13.0 0.00 0.00 0.00 84 1016.8
20191016013953 80 240 7.0 12.0 0.00 0.00 0.00 84 1016.8
20191016013453 80 240 7.0 12.0 0.00 0.00 0.00 84 1016.8
20191016012953 80 235 6.0 12.0 0.00 0.00 0.00 83 1016.8
20191016012453 80 238 6.0 10.0 0.00 0.00 0.00 83 1016.8
20191016011953 80 233 4.0 10.0 0.00 0.00 0.00 82 1016.8
20191016011454 81 212 3.0 8.0 0.00 0.00 0.00 82 1016.8
20191016010954 81 212 3.0 7.0 0.00 0.00 0.00 82 1016.8
20191016010453 80 214 3.0 8.0 0.00 0.00 0.00 83 1016.8
20191016005953 80 211 5.0 11.0 0.00 0.00 0.00 84 1016.8
20191016005453 80 208 7.0 11.0 0.00 0.00 0.00 84 1016.8
20191016004953 80 207 6.0 11.0 0.00 0.00 0.00 83 1016.9
20191016004453 80 212 6.0 11.0 0.00 0.00 0.00 83 1016.8
20191016003953 80 212 6.0 11.0 0.00 0.00 0.00 83 1016.8
20191016003454 80 216 5.0 10.0 0.00 0.00 0.00 83 1016.8
20191016002954 80 219 5.0 8.0 0.00 0.00 0.00 82 1016.8
20191016002453 80 212 4.0 8.0 0.00 0.00 0.00 82 1016.8
20191016001954 80 204 4.0 8.0 0.00 0.00 0.00 82 1016.8
20191016001454 81 217 3.0 8.0 0.00 0.00 0.00 80 1016.8
20191016000953 83 250 1.0 7.0 0.00 0.00 0.00 78 1016.7
20191016000454 83 318 0.0 2.0 0.00 0.00 0.00 75 1016.6
20191015235954 83 318 0.0 2.0 0.00 0.00 0.00 75 1016.6
20191015235454 83 318 0.0 2.0 0.00 0.00 0.00 75 1016.5
20191015234954 82 0 0.0 0.0 0.00 0.00 0.00 77 1016.5
20191015234454 81 0 0.0 0.0 0.00 0.00 0.00 77 1016.5
20191015233953 81 0 0.0 0.0 0.00 0.00 0.00 78 1016.5
20191015233453 80 317 0.0 1.0 0.00 0.00 0.00 79 1016.5
20191015232954 80 317 0.0 1.0 0.00 0.00 0.00 79 1016.5
20191015232453 79 0 0.0 0.0 0.00 0.00 0.00 80 1016.5
20191015231953 79 0 0.0 0.0 0.00 0.00 0.00 80 1016.6
20191015231453 79 0 0.0 0.0 0.00 0.00 0.00 80 1016.5
20191015230953 79 0 0.0 0.0 0.00 0.00 0.00 80 1016.5
20191015230454 79 0 0.0 0.0 0.00 0.00 0.00 80 1016.4
20191015225954 79 0 0.0 0.0 0.00 0.00 0.00 80 1016.4
20191015225454 79 318 0.0 1.0 0.00 0.00 0.00 80 1016.4
20191015224954 79 318 0.0 1.0 0.00 0.00 0.00 80 1016.3
20191015224454 79 0 0.0 0.0 0.00 0.00 0.00 80 1016.3
20191015223954 78 0 0.0 0.0 0.00 0.00 0.00 80 1016.2
20191015223454 78 0 0.0 0.0 0.00 0.00 0.00 80 1016.2
20191015222954 78 318 0.0 1.0 0.00 0.00 0.00 80 1016.2
20191015222455 78 318 0.0 1.0 0.00 0.00 0.00 80 1016.1
20191015221954 78 0 0.0 0.0 0.00 0.00 0.00 80 1016.1
20191015221454 78 0 0.0 0.0 0.00 0.00 0.00 81 1016.1
20191015220954 78 0 0.0 0.0 0.00 0.00 0.00 81 1016.1
20191015220455 78 0 0.0 0.0 0.00 0.00 0.00 81 1016.0
20191015215954 78 0 0.0 0.0 0.00 0.00 0.00 81 1015.9
20191015215454 78 0 0.0 0.0 0.00 0.00 0.00 80 1015.9
20191015214955 78 0 0.0 0.0 0.00 0.00 0.00 80 1015.9
20191015214454 78 0 0.0 0.0 0.00 0.00 0.00 80 1015.9
20191015213954 78 0 0.0 0.0 0.00 0.00 0.00 80 1015.8
20191015213454 78 0 0.0 0.0 0.00 0.00 0.00 80 1015.8
20191015212954 78 318 0.0 2.0 0.00 0.00 0.00 80 1015.6
20191015212454 78 318 0.0 2.0 0.00 0.00 0.00 80 1015.6
20191015211954 78 318 0.0 1.0 0.00 0.00 0.00 80 1015.5
20191015211454 78 318 0.0 1.0 0.00 0.00 0.00 80 1015.4
20191015210954 78 318 0.0 1.0 0.00 0.00 0.00 80 1015.4
20191015210454 78 0 0.0 0.0 0.00 0.00 0.00 81 1015.4
20191015205954 78 0 0.0 0.0 0.00 0.00 0.00 82 1015.3
20191015205455 78 0 0.0 0.0 0.00 0.00 0.00 81 1015.3
20191015204955 78 0 0.0 0.0 0.00 0.00 0.00 81 1015.3
20191015204454 78 0 0.0 0.0 0.00 0.00 0.00 81 1015.3
20191015203954 78 0 0.0 0.0 0.00 0.00 0.00 81 1015.3
20191015203454 78 0 0.0 0.0 0.00 0.00 0.00 81 1015.2
20191015202954 78 0 0.0 0.0 0.00 0.00 0.00 80 1015.2
20191015202454 78 0 0.0 0.0 0.00 0.00 0.00 80 1015.2
20191015201954 78 0 0.0 0.0 0.00 0.00 0.00 80 1015.3
20191015201455 78 0 0.0 0.0 0.00 0.00 0.00 80 1015.3
20191015200955 78 0 0.0 0.0 0.00 0.00 0.00 80 1015.3
20191015200454 78 0 0.0 0.0 0.00 0.00 0.00 80 1015.4
20191015195954 78 0 0.0 0.0 0.00 0.00 0.00 80 1015.3
20191015195454 78 0 0.0 0.0 0.00 0.00 0.00 80 1015.3
20191015194954 78 0 0.0 0.0 0.00 0.00 0.00 80 1015.3
20191015194454 78 0 0.0 0.0 0.00 0.00 0.00 80 1015.2
20191015193954 78 0 0.0 0.0 0.00 0.00 0.00 80 1015.3
20191015193454 78 0 0.0 0.0 0.00 0.00 0.00 79 1015.2
20191015192955 78 0 0.0 0.0 0.00 0.00 0.00 79 1015.3
20191015192455 78 0 0.0 0.0 0.00 0.00 0.00 79 1015.2
20191015191955 78 318 0.0 1.0 0.00 0.00 0.00 79 1015.3
20191015191455 78 318 0.0 2.0 0.00 0.00 0.00 79 1015.4
20191015190954 78 318 0.0 2.0 0.00 0.00 0.00 79 1015.3
20191015190455 78 0 0.0 0.0 0.00 0.00 0.00 79 1015.3
20191015185954 78 0 0.0 0.0 0.00 0.00 0.00 78 1015.4
20191015185455 78 0 0.0 0.0 0.00 0.00 0.00 78 1015.5
20191015184955 78 0 0.0 0.0 0.00 0.00 0.00 78 1015.5
20191015184455 78 0 0.0 0.0 0.00 0.00 0.00 78 1015.6
20191015183955 78 0 0.0 0.0 0.00 0.00 0.00 78 1015.5
20191015183456 78 318 0.0 2.0 0.00 0.00 0.00 78 1015.5
20191015182954 78 318 1.0 2.0 0.00 0.00 0.00 78 1015.6
20191015182454 78 318 1.0 2.0 0.00 0.00 0.00 78 1015.6
20191015181954 78 318 0.0 2.0 0.00 0.00 0.00 78 1015.7
20191015181454 78 318 0.0 1.0 0.00 0.00 0.00 78 1015.6
20191015180955 78 318 0.0 1.0 0.00 0.00 0.00 78 1015.6
20191015180454 78 318 0.0 1.0 0.00 0.00 0.00 78 1015.8
20191015175955 78 318 0.0 3.0 0.00 0.00 0.00 78 1015.8
20191015175454 78 318 0.0 3.0 0.00 0.00 0.00 78 1015.8
20191015174954 78 318 0.0 2.0 0.00 0.00 0.00 78 1015.8
20191015174455 79 318 0.0 2.0 0.00 0.00 0.00 78 1015.8
20191015173955 79 317 0.0 1.0 0.00 0.00 0.00 78 1015.9
20191015173454 79 0 0.0 0.0 0.00 0.00 0.00 78 1015.9
20191015172954 79 0 0.0 0.0 0.00 0.00 0.00 78 1015.9
20191015172455 79 0 0.0 0.0 0.00 0.00 0.00 77 1016.0
20191015171955 79 0 0.0 0.0 0.00 0.00 0.00 77 1015.9
20191015171454 79 0 0.0 0.0 0.00 0.00 0.00 77 1016.0
20191015170955 79 0 0.0 0.0 0.00 0.00 0.00 77 1016.1
20191015170455 79 0 0.0 0.0 0.00 0.00 0.00 77 1016.1
20191015165956 79 318 0.0 1.0 0.00 0.00 0.00 77 1016.2
20191015165455 79 318 0.0 1.0 0.00 0.00 0.00 77 1016.2
20191015164955 79 0 0.0 0.0 0.00 0.00 0.00 77 1016.3
20191015164455 79 0 0.0 0.0 0.00 0.00 0.00 77 1016.3
20191015163955 79 0 0.0 0.0 0.00 0.00 0.00 77 1016.4
20191015163455 79 0 0.0 0.0 0.00 0.00 0.00 77 1016.4
20191015162954 79 0 0.0 0.0 0.00 0.00 0.00 76 1016.5
20191015162455 79 0 0.0 0.0 0.00 0.00 0.00 76 1016.5
20191015161955 79 0 0.0 0.0 0.00 0.00 0.00 76 1016.6
20191015161455 79 0 0.0 0.0 0.00 0.00 0.00 75 1016.6
20191015160955 79 0 0.0 0.0 0.00 0.00 0.00 75 1016.6
20191015160455 79 0 0.0 0.0 0.00 0.00 0.00 76 1016.6
20191015155958 79 318 0.0 2.0 0.00 0.00 0.00 76 1016.7
20191015155455 79 318 0.0 2.0 0.00 0.00 0.00 76 1016.8
20191015154955 79 318 0.0 2.0 0.00 0.00 0.00 76 1016.8
20191015154455 79 318 1.0 4.0 0.00 0.00 0.00 76 1016.8
20191015153955 79 317 2.0 5.0 0.00 0.00 0.00 76 1016.8
20191015153455 79 317 2.0 5.0 0.00 0.00 0.00 76 1016.8
20191015152955 79 315 1.0 7.0 0.00 0.00 0.00 76 1016.9
20191015152456 79 314 2.0 7.0 0.00 0.00 0.00 75 1016.8
20191015151956 79 313 2.0 6.0 0.00 0.00 0.00 75 1016.9
20191015151455 79 312 1.0 4.0 0.00 0.00 0.00 75 1016.9
20191015150956 79 312 1.0 6.0 0.00 0.00 0.00 75 1016.9
20191015150455 80 311 1.0 6.0 0.00 0.00 0.00 74 1016.9
20191015145956 80 311 1.0 6.0 0.00 0.00 0.00 75 1017.0
20191015145456 80 310 1.0 6.0 0.00 0.00 0.00 75 1017.0
20191015144955 80 309 2.0 6.0 0.00 0.00 0.00 75 1016.9
20191015144456 80 314 2.0 6.0 0.00 0.00 0.00 75 1016.8
20191015143956 80 320 2.0 4.0 0.00 0.00 0.00 75 1016.8
20191015143455 80 320 1.0 4.0 0.00 0.00 0.00 75 1016.8
20191015142956 80 320 1.0 4.0 0.00 0.00 0.00 75 1016.9
20191015142456 80 321 2.0 4.0 0.00 0.00 0.00 75 1016.8
20191015141955 80 324 2.0 7.0 0.00 0.00 0.00 76 1016.8
20191015141455 80 306 3.0 7.0 0.00 0.00 0.00 77 1016.8
20191015140955 81 277 3.0 7.0 0.00 0.00 0.00 78 1016.8
20191015140456 81 248 3.0 8.0 0.00 0.00 0.00 82 1016.8
20191015135955 81 254 3.0 8.0 0.00 0.00 0.00 82 1016.7
20191015135455 81 281 2.0 6.0 0.00 0.00 0.00 83 1016.7
20191015134955 81 268 3.0 7.0 0.00 0.00 0.00 83 1016.7
20191015134455 81 232 4.0 8.0 0.00 0.00 0.00 83 1016.6
20191015133955 81 214 4.0 8.0 0.00 0.00 0.00 84 1016.7
20191015133455 81 209 5.0 11.0 0.00 0.00 0.00 84 1016.7
20191015132955 81 208 6.0 12.0 0.00 0.00 0.00 84 1016.7
20191015132455 81 210 6.0 12.0 0.00 0.00 0.00 84 1016.7
20191015131955 81 211 6.0 12.0 0.00 0.00 0.00 84 1016.6
20191015131455 81 211 6.0 12.0 0.00 0.00 0.00 84 1016.7
20191015130956 81 214 5.0 10.0 0.00 0.00 0.00 84 1016.6
20191015130456 81 213 4.0 10.0 0.00 0.00 0.00 83 1016.6
20191015125956 81 210 5.0 12.0 0.00 0.00 0.00 83 1016.6
20191015125456 81 207 7.0 12.0 0.00 0.00 0.00 83 1016.6
20191015124956 81 206 9.0 14.0 0.00 0.00 0.00 83 1016.4
20191015124456 81 205 9.0 15.0 0.00 0.00 0.00 83 1016.4
20191015123956 81 210 9.0 17.0 0.00 0.00 0.00 83 1016.4
20191015123455 81 214 8.0 17.0 0.00 0.00 0.00 83 1016.3
20191015122955 81 211 7.0 14.0 0.00 0.00 0.00 84 1016.3
20191015122455 81 211 8.0 15.0 0.00 0.00 0.00 84 1016.3
20191015121956 81 213 7.0 15.0 0.00 0.00 0.00 84 1016.2
20191015121456 81 218 5.0 11.0 0.00 0.00 0.00 84 1016.2
20191015120956 81 219 3.0 11.0 0.00 0.00 0.00 84 1016.2
20191015120456 81 235 2.0 9.0 0.00 0.00 0.00 84 1016.2
20191015115956 81 231 2.0 9.0 0.00 0.00 0.00 84 1016.2
20191015115456 81 232 3.0 10.0 0.00 0.00 0.00 83 1016.1
20191015114956 81 243 4.0 12.0 0.00 0.00 0.00 83 1016.1
20191015114456 81 235 4.0 12.0 0.00 0.00 0.00 83 1016.0
20191015113956 81 221 3.0 9.0 0.00 0.00 0.00 83 1016.0
20191015113456 81 218 3.0 10.0 0.00 0.00 0.00 83 1015.9
20191015112956 81 215 3.0 10.0 0.00 0.00 0.00 83 1015.8
20191015112456 81 229 4.0 11.0 0.00 0.00 0.00 83 1015.8
20191015111957 81 228 4.0 11.0 0.00 0.00 0.00 83 1015.7
20191015111456 81 212 2.0 9.0 0.00 0.00 0.00 83 1015.6
20191015110956 81 206 4.0 13.0 0.00 0.00 0.00 83 1015.6
20191015110457 81 207 7.0 14.0 0.00 0.00 0.00 83 1015.6
20191015105956 81 207 4.0 14.0 0.00 0.00 0.00 84 1015.5
20191015105458 81 228 4.0 12.0 0.00 0.00 0.00 83 1015.5
20191015104957 81 237 4.0 10.0 0.00 0.00 0.00 84 1015.5
20191015104457 81 228 2.0 11.0 0.00 0.00 0.00 84 1015.4
20191015103957 81 223 2.0 11.0 0.00 0.00 0.00 83 1015.4
20191015103456 81 211 3.0 9.0 0.00 0.00 0.00 83 1015.4
20191015102957 81 216 3.0 9.0 0.00 0.00 0.00 83 1015.4
20191015102456 81 226 3.0 9.0 0.00 0.00 0.00 83 1015.3
20191015101957 81 215 4.0 10.0 0.00 0.00 0.00 83 1015.2
20191015101457 81 208 4.0 10.0 0.00 0.00 0.00 82 1015.1
20191015100957 81 207 3.0 10.0 0.00 0.00 0.00 82 1015.0
20191015100456 81 220 1.0 7.0 0.00 0.00 0.00 83 1015.0
20191015095957 81 215 2.0 7.0 0.00 0.00 0.00 83 1015.0
20191015095457 81 204 2.0 11.0 0.00 0.00 0.00 83 1015.0
20191015094956 81 207 3.0 13.0 0.00 0.00 0.00 83 1015.0
20191015094457 80 208 3.0 13.0 0.00 0.00 0.00 84 1015.0
20191015093957 80 212 4.0 11.0 0.00 0.00 0.00 84 1015.0
20191015093457 80 213 5.0 12.0 0.00 0.00 0.00 84 1014.8
20191015092956 80 214 5.0 12.0 0.00 0.00 0.00 82 1014.8
20191015092456 81 220 4.0 10.0 0.00 0.00 0.00 83 1015.0
20191015091957 81 233 4.0 10.0 0.00 0.00 0.00 82 1014.9
20191015091457 81 242 5.0 12.0 0.00 0.00 0.00 80 1014.9
20191015090956 81 240 4.0 12.0 0.00 0.00 0.00 79 1014.8
20191015090457 82 232 2.0 11.0 0.00 0.00 0.00 79 1014.8
20191015085957 82 229 3.0 9.0 0.00 0.00 0.00 81 1014.6
20191015085456 82 245 3.0 9.0 0.00 0.00 0.00 80 1014.6
20191015084957 82 249 4.0 11.0 0.00 0.00 0.00 81 1014.6
20191015084457 82 242 4.0 11.0 0.00 0.00 0.00 79 1014.6
20191015083956 82 234 2.0 8.0 0.00 0.00 0.00 79 1014.6
20191015083456 82 221 3.0 13.0 0.00 0.00 0.00 80 1014.6
20191015082957 82 228 4.0 13.0 0.00 0.00 0.00 79 1014.6
20191015082457 82 242 5.0 11.0 0.00 0.00 0.00 78 1014.5
20191015081957 82 242 5.0 11.0 0.00 0.00 0.00 76 1014.5
20191015081456 83 248 3.0 7.0 0.00 0.00 0.00 78 1014.4
20191015080957 83 254 3.0 7.0 0.00 0.00 0.00 76 1014.4
20191015080457 83 264 2.0 7.0 0.00 0.00 0.00 77 1014.4
20191015075957 83 261 2.0 7.0 0.00 0.00 0.00 76 1014.4
20191015075457 83 247 3.0 7.0 0.00 0.00 0.00 77 1014.3
20191015074956 83 240 3.0 8.0 0.00 0.00 0.00 78 1014.4
20191015074456 83 243 4.0 9.0 0.00 0.00 0.00 77 1014.4
20191015073957 83 246 5.0 9.0 0.00 0.00 0.00 76 1014.5
20191015073456 83 262 3.0 11.0 0.00 0.00 0.00 75 1014.4
20191015072957 83 279 5.0 11.0 0.00 0.00 0.00 75 1014.3
20191015072458 83 282 6.0 12.0 0.00 0.00 0.00 76 1014.3
20191015071956 83 285 6.0 12.0 0.00 0.00 0.00 75 1014.2
20191015071456 84 288 4.0 12.0 0.00 0.00 0.00 75 1014.2
20191015070957 85 280 2.0 13.0 0.00 0.00 0.00 75 1014.3
20191015070458 84 276 4.0 13.0 0.00 0.00 0.00 76 1014.4
20191015065957 84 276 4.0 13.0 0.00 0.00 0.00 76 1014.3
20191015065457 83 275 5.0 11.0 0.00 0.00 0.00 77 1014.4
20191015064957 83 271 6.0 13.0 0.00 0.00 0.00 78 1014.4
20191015064457 83 266 6.0 13.0 0.00 0.00 0.00 78 1014.5
20191015063957 83 270 6.0 16.0 0.00 0.00 0.00 79 1014.4
20191015063458 84 277 5.0 16.0 0.00 0.00 0.00 76 1014.4
20191015062957 84 277 6.0 14.0 0.00 0.00 0.00 78 1014.4
20191015062457 84 270 7.0 14.0 0.00 0.00 0.00 76 1014.4
20191015061959 84 257 7.0 14.0 0.00 0.00 0.00 77 1014.4
20191015061457 83 250 8.0 14.0 0.00 0.00 0.00 76 1014.5
20191015060957 84 257 7.0 14.0 0.00 0.00 0.00 75 1014.6
20191015060457 84 272 7.0 13.0 0.00 0.00 0.00 76 1014.5
20191015055957 84 266 7.0 14.0 0.00 0.00 0.00 76 1014.7
20191015055457 84 268 8.0 17.0 0.00 0.00 0.00 76 1014.6
20191015054957 83 276 9.0 17.0 0.00 0.00 0.00 76 1014.7
20191015054458 84 279 8.0 14.0 0.00 0.00 0.00 78 1014.7
20191015053957 83 279 8.0 15.0 0.00 0.00 0.00 78 1014.7
20191015053457 83 278 10.0 15.0 0.00 0.00 0.00 79 1014.9
20191015052957 83 278 11.0 15.0 0.00 0.00 0.00 80 1015.0
20191015052457 83 277 9.0 15.0 0.00 0.00 0.00 79 1015.1
20191015051958 83 276 9.0 17.0 0.00 0.00 0.00 81 1015.2
20191015051458 82 279 9.0 17.0 0.00 0.00 0.00 82 1015.1
20191015050957 83 273 9.0 17.0 0.00 0.00 0.00 82 1015.2
20191015050457 82 262 10.0 19.0 0.00 0.00 0.00 83 1015.2
20191015045958 82 268 9.0 19.0 0.00 0.00 0.00 82 1015.3
20191015045459 83 271 9.0 17.0 0.00 0.00 0.00 82 1015.3
20191015044958 82 257 9.0 16.0 0.00 0.00 0.00 83 1015.3
20191015044457 82 252 9.0 16.0 0.00 0.00 0.00 83 1015.3
20191015043959 82 261 10.0 15.0 0.00 0.00 0.00 83 1015.4
20191015043457 82 268 9.0 15.0 0.00 0.00 0.00 82 1015.4